Regional Weather Roundup
Issued by NWS

Home | Current Version | Previous Version | Text Only | Print | Product List | Glossary On
Versions: 1 2 3 4 5 6 7 8 9 10 11 12 13 14 15 16 17 18 19 20 21 22 23 24 25 26 27 28 29 30 31 32 33 34 35 36 37 38 39 40 41 42 43 44 45 46 47 48 49 50
000
ASCA42 TJSJ 291210
RWRPR
PUERTO RICO/U.S. VIRGIN ISLANDS HOURLY WEATHER ROUNDUP
NATIONAL WEATHER SERVICE SAN JUAN PR
800 AM AST FRI JUL 29 2016

PRZ001-004-291300-
PUERTO RICO

CITY           SKY/WX    TMP DP  RH WIND       PRES   REMARKS
SAN JUAN LMM   LGT RAIN  82  75  78 CALM      30.02R
PONCE          MOSUNNY   82  73  74 NE7       29.98
AGUADILLA      SUNNY     81  75  83 E8        30.02R
CEIBA          MOSUNNY   79  77  94 CALM      30.03S
$$

PRZ006-007-291300-
U.S. VIRGIN ISLANDS

CITY           SKY/WX    TMP DP  RH WIND       PRES   REMARKS
CHRISTIANSTED  MOSUNNY   84  75  74 E17       30.00S HX  92
$$

HOURLY WEATHER ROUNDUP FOR THE NEWS MEDIA

CITY           SKY/WX    TMP DP  RH WIND       PRES   REMARKS
ORLANDO        SUNNY     81  77  88 CALM      30.06R
NEW YORK       RAIN      71  68  90 NE13      29.85R FOG
NEWARK         RAIN      70  70 100 N10       29.84R FOG
CHICAGO        PTSUNNY   71  68  90 N6        29.92R
HARTFORD       LGT RAIN  77  74  90 SW3       29.85S
BOSTON         LGT RAIN  73  69  87 N14       29.85
DALLAS         PTCLDY    78  72  81 S6        29.98R
PHILADELPHIA   CLOUDY    73  71  93 N12       29.84
LOS ANGELES    PTCLDY    70  65  84 W3        29.82S
WASHINGTON DC  CLOUDY    73  71  93 NW8       29.89R


USA.gov is the U.S. government's official web portal to all federal, state and local government web resources and services.